When you browse on this site, cookies collect data to enhance your experience and personalize the content and advertising you see.
Visit our Privacy Policy to learn more. By continuing to use the site, you agree to this use of cookies and data.
  • In Lithuania
  • List of Countries
  • For 7 days
  • Water Temperature
  • Satellite Maps
  • Weather Map
  • Weather Widgets
  • user-avatar
    Login

    Hourly Weather Chudino

    Today, 21 May, Tuesday

    Time Temperature Precipitation Wind Pressure Humidity
    00:00 +15°C° 0 mm 2 mps 746 mmHg 84%
    01:00 +15°C° 0 mm 2 mps 746 mmHg 84%
    02:00 +15°C° 0 mm 2 mps 746 mmHg 78%
    03:00 +15°C° 0 mm 2 mps 746 mmHg 79%
    04:00 +15°C° 0 mm 2 mps 746 mmHg 80%
    05:00 +15°C° 0 mm 2 mps 746 mmHg 81%
    06:00 +17°C° 0 mm 2 mps 745 mmHg 72%
    07:00 +20°C° 0 mm 2 mps 745 mmHg 64%
    08:00 +22°C° 0 mm 3 mps 745 mmHg 54%
    09:00 +24°C° 0 mm 3 mps 745 mmHg 47%
    10:00 +25°C° 0 mm 4 mps 745 mmHg 41%
    11:00 +26°C° 0 mm 4 mps 745 mmHg 35%
    12:00 +26°C° 0 mm 4 mps 744 mmHg 34%
    13:00 +27°C° 0 mm 4 mps 744 mmHg 34%
    14:00 +27°C° 0 mm 3 mps 744 mmHg 33%
    15:00 +26°C° 0 mm 3 mps 743 mmHg 37%
    16:00 +26°C° 0 mm 2 mps 743 mmHg 42%
    17:00 +25°C° 0 mm 2 mps 742 mmHg 46%
    18:00 +23°C° 0 mm 2 mps 742 mmHg 52%
    19:00 +21°C° 0 mm 1 mps 742 mmHg 58%
    20:00 +20°C° 0 mm 1 mps 742 mmHg 64%
    21:00 +19°C° 0 mm 1 mps 742 mmHg 66%
    22:00 +18°C° 0 mm 1 mps 741 mmHg 68%
    23:00 +17°C° 0 mm 2 mps 741 mmHg 70%

    Tomorrow, 22 May, Wednesday

    Time Temperature Precipitation Wind Pressure Humidity
    00:00 +16°C° 0 mm 2 mps 741 mmHg 72%
    01:00 +15°C° 0 mm 2 mps 741 mmHg 73%
    02:00 +14°C° 0 mm 2 mps 741 mmHg 75%
    03:00 +15°C° 0 mm 2 mps 741 mmHg 76%
    04:00 +15°C° 0 mm 2 mps 741 mmHg 76%
    05:00 +16°C° 0 mm 3 mps 740 mmHg 76%
    06:00 +17°C° 0.2 mm 3 mps 740 mmHg 73%
    07:00 +19°C° 0.2 mm 3 mps 740 mmHg 70%
    08:00 +20°C° 0.2 mm 3 mps 740 mmHg 67%
    09:00 +21°C° 0.5 mm 3 mps 740 mmHg 64%
    10:00 +22°C° 0.5 mm 3 mps 739 mmHg 61%
    11:00 +24°C° 0.5 mm 3 mps 739 mmHg 58%
    12:00 +22°C° 1.3 mm 3 mps 739 mmHg 62%
    13:00 +22°C° 1.3 mm 3 mps 738 mmHg 67%
    14:00 +21°C° 1.3 mm 3 mps 738 mmHg 72%
    15:00 +21°C° 0.3 mm 2 mps 738 mmHg 72%
    16:00 +21°C° 0.3 mm 2 mps 737 mmHg 73%
    17:00 +22°C° 0.3 mm 1 mps 737 mmHg 73%
    18:00 +21°C° 0.1 mm 1 mps 737 mmHg 78%
    19:00 +19°C° 0.1 mm 1 mps 737 mmHg 84%
    20:00 +18°C° 0.1 mm 1 mps 737 mmHg 89%
    21:00 +16°C° 0.4 mm 1 mps 737 mmHg 91%
    22:00 +16°C° 0.4 mm 1 mps 737 mmHg 93%
    23:00 +15°C° 0.4 mm 1 mps 737 mmHg 95%

    Day after tomorrow, 23 May, Thursday

    Time Temperature Precipitation Wind Pressure Humidity
    00:00 +14°C° 0 mm 1 mps 737 mmHg 96%
    01:00 +14°C° 0 mm 1 mps 737 mmHg 96%
    02:00 +13°C° 0 mm 1 mps 737 mmHg 97%
    03:00 +13°C° 0 mm 2 mps 737 mmHg 96%
    04:00 +12°C° 0 mm 3 mps 737 mmHg 96%
    05:00 +12°C° 0 mm 3 mps 738 mmHg 96%
    06:00 +12°C° 0 mm 3 mps 738 mmHg 94%
    07:00 +11°C° 0 mm 3 mps 739 mmHg 93%
    08:00 +11°C° 0 mm 3 mps 739 mmHg 91%
    09:00 +12°C° 0 mm 3 mps 739 mmHg 83%
    10:00 +13°C° 0 mm 3 mps 740 mmHg 75%
    11:00 +14°C° 0 mm 3 mps 740 mmHg 67%
    12:00 +16°C° 0 mm 3 mps 740 mmHg 56%
    13:00 +18°C° 0 mm 3 mps 740 mmHg 46%
    14:00 +19°C° 0 mm 3 mps 740 mmHg 35%
    15:00 +18°C° 0 mm 3 mps 740 mmHg 36%
    16:00 +18°C° 0 mm 3 mps 740 mmHg 38%
    17:00 +17°C° 0 mm 3 mps 740 mmHg 39%
    18:00 +14°C° 0 mm 3 mps 741 mmHg 47%
    19:00 +13°C° 0 mm 2 mps 741 mmHg 54%
    20:00 +10°C° 0 mm 2 mps 741 mmHg 62%
    21:00 +9°C° 0 mm 2 mps 742 mmHg 64%
    22:00 +8°C° 0 mm 2 mps 742 mmHg 66%
    23:00 +7°C° 0 mm 2 mps 743 mmHg 68%

    24 May, Friday

    Time Temperature Precipitation Wind Pressure Humidity
    00:00 +6°C° 0 mm 2 mps 743 mmHg 69%
    01:00 +6°C° 0 mm 2 mps 743 mmHg 69%
    02:00 +5°C° 0 mm 2 mps 743 mmHg 70%
    03:00 +5°C° 0 mm 2 mps 743 mmHg 68%
    04:00 +6°C° 0 mm 2 mps 743 mmHg 65%
    05:00 +6°C° 0 mm 2 mps 743 mmHg 63%
    06:00 +8°C° 0 mm 2 mps 743 mmHg 56%
    07:00 +10°C° 0 mm 2 mps 743 mmHg 50%
    08:00 +12°C° 0 mm 3 mps 743 mmHg 43%
    09:00 +13°C° 0 mm 3 mps 743 mmHg 41%
    10:00 +16°C° 0 mm 3 mps 743 mmHg 38%
    11:00 +17°C° 0 mm 3 mps 742 mmHg 36%
    12:00 +18°C° 0 mm 3 mps 742 mmHg 36%
    13:00 +18°C° 0 mm 3 mps 742 mmHg 35%
    14:00 +19°C° 0 mm 3 mps 741 mmHg 35%
    15:00 +19°C° 0 mm 3 mps 741 mmHg 37%
    16:00 +19°C° 0 mm 3 mps 741 mmHg 39%
    17:00 +19°C° 0 mm 3 mps 740 mmHg 41%
    18:00 +17°C° 0 mm 3 mps 740 mmHg 50%
    19:00 +14°C° 0 mm 3 mps 740 mmHg 58%
    20:00 +14°C° 0 mm 2 mps 740 mmHg 66%
    21:00 +12°C° 0 mm 3 mps 739 mmHg 68%
    22:00 +12°C° 0 mm 3 mps 739 mmHg 71%
    23:00 +11°C° 0 mm 3 mps 739 mmHg 73%

    25 May, Saturday

    Time Temperature Precipitation Wind Pressure Humidity
    00:00 +11°C° 0.3 mm 3 mps 739 mmHg 79%
    01:00 +12°C° 0.3 mm 3 mps 738 mmHg 86%
    02:00 +12°C° 0.3 mm 3 mps 738 mmHg 92%
    03:00 +12°C° 0.6 mm 3 mps 738 mmHg 93%
    04:00 +12°C° 0.6 mm 3 mps 737 mmHg 94%
    05:00 +12°C° 0.6 mm 3 mps 737 mmHg 95%
    06:00 +13°C° 0.1 mm 3 mps 737 mmHg 93%
    07:00 +14°C° 0.1 mm 3 mps 737 mmHg 92%
    08:00 +15°C° 0.1 mm 4 mps 736 mmHg 90%
    09:00 +16°C° 0.1 mm 3 mps 736 mmHg 88%
    10:00 +17°C° 0.1 mm 3 mps 736 mmHg 86%
    11:00 +17°C° 0.1 mm 3 mps 736 mmHg 84%
    12:00 +18°C° 0.2 mm 3 mps 735 mmHg 82%
    13:00 +18°C° 0.2 mm 2 mps 735 mmHg 79%
    14:00 +19°C° 0.2 mm 2 mps 734 mmHg 77%
    15:00 +20°C° 1.2 mm 1 mps 734 mmHg 81%
    16:00 +20°C° 1.2 mm 1 mps 734 mmHg 84%
    17:00 +19°C° 1.2 mm 1 mps 733 mmHg 88%
    18:00 +18°C° 1.8 mm 1 mps 733 mmHg 90%
    19:00 +18°C° 1.8 mm 1 mps 733 mmHg 92%
    20:00 +16°C° 1.8 mm 1 mps 732 mmHg 94%
    21:00 +15°C° 0.3 mm 1 mps 732 mmHg 95%
    22:00 +15°C° 0.3 mm 1 mps 731 mmHg 96%
    23:00 +14°C° 0.3 mm 1 mps 731 mmHg 97%

    26 May, Sunday

    Time Temperature Precipitation Wind Pressure Humidity
    00:00 +14°C° 0 mm 1 mps 731 mmHg 97%
    01:00 +14°C° 0 mm 1 mps 730 mmHg 97%
    02:00 +14°C° 0 mm 1 mps 730 mmHg 98%
    03:00 +14°C° 0.2 mm 1 mps 730 mmHg 98%
    04:00 +14°C° 0.2 mm 1 mps 730 mmHg 97%
    05:00 +14°C° 0.2 mm 2 mps 730 mmHg 97%
    06:00 +15°C° 0.2 mm 2 mps 730 mmHg 95%
    07:00 +15°C° 0.2 mm 2 mps 730 mmHg 93%
    08:00 +16°C° 0.2 mm 2 mps 730 mmHg 90%
    09:00 +16°C° 0.5 mm 2 mps 729 mmHg 89%
    10:00 +16°C° 0.5 mm 2 mps 729 mmHg 88%
    11:00 +16°C° 0.5 mm 3 mps 729 mmHg 87%
    12:00 +16°C° 0.8 mm 3 mps 729 mmHg 87%
    13:00 +16°C° 0.8 mm 3 mps 729 mmHg 86%
    14:00 +17°C° 0.8 mm 4 mps 729 mmHg 86%
    15:00 +15°C° 0.5 mm 4 mps 729 mmHg 83%
    16:00 +15°C° 0.5 mm 4 mps 729 mmHg 81%
    17:00 +15°C° 0.5 mm 4 mps 729 mmHg 79%
    18:00 +14°C° 0 mm 3 mps 729 mmHg 82%
    19:00 +14°C° 0 mm 2 mps 729 mmHg 85%
    20:00 +12°C° 0 mm 1 mps 729 mmHg 87%
    21:00 +10°C° 0 mm 2 mps 729 mmHg 90%
    22:00 +10°C° 0 mm 2 mps 729 mmHg 92%
    23:00 +9°C° 0 mm 2 mps 729 mmHg 95%
    Show more